Location: Newark
(50.0306°N, 2.3272°E)
Time: 23:21:47
(UTC+00:00)

A-11 Canister half - Pass Details

Date: 17 December 2019
Orbit: 1525 x 1684 km, 47.3° (Epoch: 26 January)

Event Time Altitude Azimuth Distance (km) Brightness Sun altitude
Rises 08:41:16 0° 281° (WNW) 4,939 11.2 5.9°
Reaches altitude 10° 08:44:29 10° 279° (W) 3,952 10.7 6.3°
Maximum altitude 08:54:27 64° 202° (SSW) 1,829 9.8 7.3°
Drops below altitude 10° 09:04:15 10° 124° (SE) 3,884 12.8 8.3°
Sets 09:07:23 0° 121° (ESE) 4,851 13.1 8.6°
